Tracking 26325 objects as of 29-Nov-2022
HD Live streaming from Space Station
objects crossing your sky now

COSMOS 1581

Track COSMOS 1581 now!
COSMOS 1581 is classified as:


NORAD ID: 15095
Int'l Code: 1984-071A
Perigee: 1,952.8 km
Apogee: 38,583.2 km
Inclination: 66.0 °
Period: 721.2 minutes
Semi major axis: 26638 km
RCS: 9.1322 m2 (large)
Launch date: July 3, 1984
Source: Commonwealth of Independent States (former USSR) (CIS)
Launch site: PLESETSK MISSILE AND SPACE COMPLEX (PKMTR)
aabbcc
Your satellite tracking list
Your tracking list is empty




NASA's NSSDC Master Catalog

Two Line Element Set (TLE):
1 15095U 84071A   22332.51948836  .00000699  00000-0  00000+0 0  9999
2 15095  65.9633 138.8366 6875340  26.7685 356.2028  1.99676400254724
Source of the keplerian elements: AFSPC